DW9425 Weather Reports


Display with metric or nautical units.
time (UTC)temp
F
wind
direction
speed
MPH
gust
MPH
rain 1hr
in
rain 24hr
in
rain mn
in
humidity
%
barometer
mb
20260502163022 50 338 6.0 12.0 0.00 0.03 0.00 56 1023.1
20260502161515 48 331 7.0 16.0 0.00 0.03 0.00 61 1023.0
20260502151552 45 355 8.0 16.0 0.00 0.03 0.00 70 1023.1
20260502130106 38 346 3.0 10.0 0.00 0.03 0.00 88 1022.7
20260502123108 37 347 2.0 5.0 0.00 0.03 0.00 88 1022.5
20260502121534 38 331 2.0 6.0 0.00 0.03 0.00 86 1022.5
20260502114533 38 5 2.0 6.0 0.00 0.04 0.00 86 1022.4
20260502113030 38 348 4.0 9.0 0.00 0.04 0.00 87 1022.6
20260502111532 38 5 5.0 9.0 0.00 0.04 0.00 89 1022.7
20260502110037 38 355 1.0 5.0 0.00 0.04 0.00 89 1022.7
20260502104526 37 9 4.0 10.0 0.00 0.05 0.00 87 1022.6
20260502103023 38 348 3.0 6.0 0.00 0.05 0.00 84 1022.5
20260502101521 38 82 0.0 3.0 0.00 0.05 0.00 82 1022.4
20260502091516 40 82 0.0 4.0 0.00 0.06 0.00 80 1021.9
20260502071509 40 136 5.0 10.0 0.00 0.15 0.00 81 1022.5
20260502070005 39 150 3.0 8.0 0.00 0.15 0.00 82 1022.6
20260502064505 39 154 6.0 11.0 0.00 0.15 0.00 83 1022.5
20260502063002 39 180 4.0 9.0 0.00 0.15 0.00 84 1022.5
20260502061600 39 144 4.0 10.0 0.00 0.15 0.00 84 1022.4
20260502060113 39 158 4.0 12.0 0.00 0.15 0.00 84 1022.2
20260502054556 39 159 6.0 12.0 0.00 0.15 0.14 84 1022.1
20260502053054 39 161 5.0 11.0 0.00 0.15 0.14 84 1022.2
20260502051557 39 169 5.0 11.0 0.00 0.15 0.14 84 1022.1
20260502050051 38 140 5.0 10.0 0.00 0.15 0.14 85 1022.1
20260502044548 38 128 4.0 9.0 0.00 0.15 0.14 84 1021.7
20260502043056 39 147 4.0 8.0 0.00 0.15 0.14 84 1021.7
20260502041552 38 148 6.0 12.0 0.00 0.15 0.14 84 1021.5
20260502040044 38 128 7.0 11.0 0.00 0.15 0.14 85 1021.5
20260502034543 39 135 5.0 14.0 0.00 0.16 0.14 85 1021.6
20260502033046 39 166 7.0 10.0 0.00 0.16 0.14 85 1021.6
20260502031539 39 148 7.0 13.0 0.00 0.16 0.14 85 1021.3
20260502030036 39 123 8.0 13.0 0.00 0.16 0.14 85 1021.1
20260502024531 39 121 6.0 10.0 0.00 0.16 0.14 85 1020.8
20260502023030 39 150 6.0 12.0 0.00 0.16 0.14 85 1020.6
20260502021527 40 134 6.0 12.0 0.00 0.16 0.14 84 1020.4
20260502020026 41 138 8.0 14.0 0.00 0.16 0.14 84 1020.1
20260502014524 41 142 7.0 15.0 0.00 0.16 0.14 82 1020.1
20260502013022 41 158 8.0 14.0 0.00 0.16 0.14 81 1020.1
20260502011522 42 158 7.0 10.0 0.00 0.16 0.14 80 1020.3
20260502010019 42 139 9.0 12.0 0.00 0.16 0.14 81 1019.8
20260502004539 42 126 8.0 16.0 0.01 0.16 0.14 81 1019.7
20260502003010 42 112 10.0 16.0 0.02 0.16 0.14 82 1019.2
20260502001510 43 103 10.0 18.0 0.03 0.16 0.14 80 1019.2
20260502000007 44 134 10.0 15.0 0.03 0.16 0.14 80 1018.9
20260501234507 44 160 7.0 11.0 0.02 0.15 0.13 80 1019.0
20260501233007 46 128 13.0 19.0 0.01 0.14 0.12 73 1018.5
20260501231514 47 165 7.0 12.0 0.00 0.13 0.11 59 1019.2
20260501230002 48 157 8.0 15.0 0.00 0.13 0.11 57 1018.9
20260501224501 49 110 11.0 16.0 0.00 0.13 0.11 55 1018.5
20260501223003 50 159 11.0 17.0 0.00 0.13 0.11 54 1018.3
20260501221503 50 148 14.0 20.0 0.00 0.13 0.11 52 1018.2
20260501214600 50 138 12.0 20.0 0.00 0.13 0.11 54 1018.2
20260501213059 53 140 9.0 19.0 0.00 0.13 0.11 50 1018.2
20260501211609 54 185 13.0 21.0 0.00 0.13 0.11 48 1018.2
20260501210158 56 149 13.0 22.0 0.00 0.13 0.11 45 1018.0
20260501204558 56 156 14.0 23.0 0.00 0.13 0.11 45 1018.1
20260501203057 57 184 13.0 20.0 0.00 0.13 0.11 44 1017.9
20260501201558 58 160 14.0 23.0 0.00 0.13 0.11 45 1018.0
20260501200151 56 127 10.0 21.0 0.00 0.13 0.11 46 1018.1
20260501194552 55 162 10.0 23.0 0.00 0.13 0.11 50 1018.1
20260501193101 54 166 13.0 20.0 0.00 0.13 0.11 48 1018.1
20260501191550 56 187 12.0 21.0 0.00 0.13 0.11 47 1018.1
20260501190105 56 167 9.0 18.0 0.00 0.13 0.11 48 1018.2
20260501184558 55 94 9.0 17.0 0.00 0.13 0.11 48 1018.2
20260501183041 55 156 14.0 23.0 0.00 0.13 0.11 52 1018.4
20260501181541 53 115 9.0 14.0 0.00 0.13 0.11 55 1018.5
20260501180045 53 157 9.0 15.0 0.00 0.13 0.11 57 1018.5
20260501174537 51 166 5.0 21.0 0.00 0.13 0.11 62 1018.8
20260501173027 50 245 3.0 8.0 0.00 0.13 0.11 64 1018.9
20260501171525 49 218 5.0 10.0 0.00 0.13 0.11 68 1018.9